Sturgeon Bay, WI

5:40 PM CST on November 14, 2019 (GMT -0600)
Door County Cherryland

Weather History for KSUE - October, 2019

Change the Weather History Date:

Saturday, October 12, 2019

  Actual Average Record
Temperature  
Mean Temperature 39 °F -  
Max Temperature 44 °F 58 °F 77 °F (1918)
Min Temperature 35 °F 41 °F 24 °F (1932)
Degree Days  
Heating Degree Days 26    
Moisture  
Dew Point 29 °F    
Average Humidity 70    
Maximum Humidity 89    
Minimum Humidity 49    
Precipitation  
Precipitation 0.03 in - - ()
Sea Level Pressure  
Sea Level Pressure 29.78 in    
Wind  
Wind Speed 13 mph (SSW)    
Max Wind Speed 21 mph    
Max Gust Speed 30 mph    
Visibility 10 miles    
Events Rain    
Averages and records for this station are not official NWS values.
T = Trace of Precipitation, MM = Missing Value Source: NWS Daily Summary

Daily Weather History Graph

Daily Weather History Graph

Search for Another Location

Airport or City:

Astronomy

Oct. 12, 2019 Rise Set
Actual Time 7:01 AM CDT 6:10 PM CDT
Civil Twilight 6:31 AM CDT 6:39 PM CDT
Nautical Twilight 5:57 AM CDT 7:13 PM CDT
Astronomical Twilight 5:23 AM CDT 7:47 PM CDT
Moon 6:11 PM CDT (10/12) 5:31 AM CDT (10/12)
Length of Visible Light 12h 08m
Length of Day
11h 09m
Waxing Gibbous, 99% of the Moon is Illuminated
Oct 12
Waxing Gibbous
Oct 13
Full
Oct 21
Last Quarter
Oct 27
New
Nov 4
First Quarter

Hourly Weather History & Observations

Time (CDT) Temp. Windchill Dew Point Humidity Pressure Visibility Wind Dir Wind Speed Gust Speed Precip Events Conditions
12:56 AM 37.0 °F 29.3 °F 27.0 °F 67% 29.84 in 10.0 mi SSW 11.5 mph - 0.03 in   Overcast
1:56 AM 37.9 °F 28.9 °F 27.0 °F 65% 29.85 in 10.0 mi SSW 16.1 mph 19.6 mph N/A   Overcast
2:56 AM 39.0 °F 31.8 °F 26.1 °F 60% 29.84 in 10.0 mi SW 11.5 mph 25.3 mph N/A   Overcast
3:56 AM 37.9 °F 30.0 °F 25.0 °F 60% 29.83 in 10.0 mi SW 12.7 mph 20.7 mph N/A   Overcast
4:56 AM 37.9 °F 30.5 °F 26.1 °F 62% 29.83 in 10.0 mi SW 11.5 mph 18.4 mph N/A   Overcast
5:56 AM 37.9 °F 30.5 °F 26.1 °F 62% 29.84 in 10.0 mi SW 11.5 mph 18.4 mph N/A   Overcast
6:56 AM 37.0 °F 29.3 °F 24.1 °F 59% 29.84 in 10.0 mi SSW 11.5 mph 17.3 mph N/A   Overcast
7:56 AM 36.0 °F 29.0 °F 26.1 °F 67% 29.84 in 10.0 mi South 9.2 mph - N/A   Clear
8:56 AM 39.0 °F 30.3 °F 28.0 °F 65% 29.83 in 10.0 mi South 16.1 mph 21.9 mph N/A   Clear
9:56 AM 37.9 °F 28.2 °F 26.1 °F 62% 29.82 in 10.0 mi SSW 18.4 mph 25.3 mph N/A   Partly Cloudy
10:56 AM 41.0 °F 32.5 °F 27.0 °F 57% 29.81 in 10.0 mi SSW 17.3 mph 29.9 mph N/A   Partly Cloudy
11:56 AM 42.1 °F 33.1 °F 26.1 °F 53% 29.80 in 10.0 mi SSW 20.7 mph 29.9 mph N/A   Scattered Clouds
12:56 PM 43.0 °F 34.8 °F 26.1 °F 51% 29.77 in 10.0 mi South 18.4 mph 25.3 mph N/A   Mostly Cloudy
1:56 PM 42.1 °F 35.2 °F 26.1 °F 53% 29.75 in 10.0 mi SSW 12.7 mph 24.2 mph N/A   Clear
2:56 PM 42.1 °F 34.5 °F 25.0 °F 51% 29.75 in 10.0 mi SSW 15.0 mph 27.6 mph N/A   Mostly Cloudy
3:56 PM 43.0 °F 36.0 °F 25.0 °F 49% 29.74 in 10.0 mi SSW 13.8 mph 26.5 mph N/A   Mostly Cloudy
4:56 PM 43.0 °F 35.1 °F 27.0 °F 53% 29.75 in 10.0 mi SSW 17.3 mph 23.0 mph N/A   Mostly Cloudy
5:41 PM 37.4 °F 28.2 °F 33.8 °F 87% 29.75 in 10.0 mi SSW 16.1 mph 21.9 mph 0.00 in Rain Light Rain
5:56 PM 37.0 °F 28.9 °F 34.0 °F 89% 29.77 in 10.0 mi SSW 12.7 mph - 0.00 in Rain Light Rain
6:56 PM 37.0 °F 29.3 °F 34.0 °F 89% 29.76 in 10.0 mi SSW 11.5 mph 17.3 mph 0.00 in   Overcast
7:13 PM 37.4 °F 28.9 °F 32.0 °F 81% 29.75 in 10.0 mi SSW 13.8 mph 19.6 mph N/A   Overcast
7:56 PM 37.0 °F 27.4 °F 33.1 °F 86% 29.76 in 10.0 mi SW 17.3 mph 23.0 mph 0.00 in   Overcast
8:56 PM 36.0 °F 28.0 °F 32.0 °F 86% 29.75 in 10.0 mi SSW 11.5 mph 19.6 mph N/A   Overcast
9:26 PM 35.6 °F 28.6 °F 32.0 °F 87% 29.74 in 10.0 mi SSW 9.2 mph - N/A   Mostly Cloudy
9:54 PM 35.6 °F 27.5 °F 32.0 °F 87% 29.71 in 10.0 mi South 11.5 mph - N/A   Overcast
9:56 PM 36.0 °F 29.0 °F 32.0 °F 86% 29.72 in 10.0 mi South 9.2 mph - N/A   Overcast
10:17 PM 35.6 °F 28.6 °F 30.2 °F 81% 29.71 in 10.0 mi South 9.2 mph - N/A   Mostly Cloudy
10:56 PM 35.1 °F 27.9 °F 30.9 °F 85% 29.70 in 10.0 mi South 9.2 mph - N/A   Partly Cloudy
11:56 PM 36.0 °F 27.5 °F 33.1 °F 89% 29.68 in 10.0 mi South 12.7 mph - N/A   Overcast